Location: Newark
(32.8014°N, 52.8711°E)
Time: 20:59:56
(UTC+00:00)

Envisat - Pass Details

Date: 01 February 2020
Orbit: 764 x 766 km, 98.1° (Epoch: 25 February)

Event Time Altitude Azimuth Distance (km) Brightness Sun altitude
Rises 14:43:33 0° 178° (S) 3,216 6.4 -9.5°
Reaches altitude 10° 14:45:54 10° 183° (S) 2,294 5.7 -10.0°
Maximum altitude 14:50:50 54° 260° (W) 929 3.9 -11.0°
Drops below altitude 10° 14:55:48 10° 337° (NNW) 2,306 5.6 -12.0°
Sets 14:58:11 0° 342° (NNW) 3,236 6.3 -12.5°
